Weather History for Wautoma, WI

Change the Weather History Date:

Wednesday, March 5, 2014

  Actual Average (KPCZ) Record (KPCZ)
Temperature  
Mean Temperature 6 °F -  
Max Temperature 18 °F 37 °F 55 °F (1974)
Min Temperature -6 °F 18 °F -5 °F (1978)
Degree Days  
Heating Degree Days 59    
Moisture  
Dew Point 0 °F    
Average Humidity 65    
Maximum Humidity 83    
Minimum Humidity 45    
Precipitation  
Precipitation 0.00 in - - ()
Sea Level Pressure  
Sea Level Pressure 30.49 in    
Wind  
Wind Speed 7 mph (ENE)    
Max Wind Speed 15 mph    
Max Gust Speed 20 mph    
Visibility 10 miles    
Events      
Averages and records for this station are not official NWS values.
T = Trace of Precipitation, MM = Missing Value Source: NWS Daily Summary

Daily Weather History Graph

Daily Weather History Graph

Search for Another Location

Airport:

Trip Planner

Search our weather history database for the weather conditions in past years. The results will help you decide how hot, cold, wet, or windy it might be!

Date:

Astronomy

Mar. 05, 2014 Rise Set
Actual Time 6:27 AM CST 5:50 PM CST
Civil Twilight 5:58 AM CST 6:19 PM CST
Nautical Twilight 5:25 AM CST 6:53 PM CST
Astronomical Twilight 4:51 AM CST 7:26 PM CST
Moon 8:42 AM CST (3/5) 11:10 PM CST (3/5)
Length of Visible Light 12h 21m
Length of Day
11h 23m
Waxing Crescent, 23% of the Moon is Illuminated
Mar 5
Waxing Crescent
Mar 8
First Quarter
Mar 16
Full
Mar 23
Last Quarter
Mar 30
New

Hourly Weather History & Observations

Time (CST) Temp. Windchill Dew Point Humidity Pressure Visibility Wind Dir Wind Speed Gust Speed Precip Events Conditions
12:56 AM 14.0 °F - 7.2 °F 74% 30.35 in 10.0 mi Calm Calm - N/A   Overcast
1:56 AM 14.0 °F 8.2 °F 7.2 °F 74% 30.39 in 10.0 mi NNE 3.5 mph - N/A   Overcast
2:56 AM 13.1 °F 2.8 °F 7.2 °F 77% 30.39 in 10.0 mi ENE 6.9 mph - N/A   Overcast
3:56 AM 13.1 °F 0.1 °F 6.1 °F 74% 30.40 in 10.0 mi ENE 10.4 mph - N/A   Mostly Cloudy
4:56 AM 13.1 °F 0.1 °F 5.0 °F 70% 30.44 in 10.0 mi ENE 10.4 mph - N/A   Overcast
5:37 AM 12.2 °F -0.2 °F 5.0 °F 73% 30.40 in 10.0 mi NE 9.2 mph - N/A   Overcast
5:56 AM 12.0 °F -0.4 °F 4.1 °F 71% 30.46 in 10.0 mi NE 9.2 mph - N/A   Overcast
6:56 AM 11.1 °F -1.6 °F 4.1 °F 73% 30.48 in 10.0 mi NE 9.2 mph - N/A   Overcast
7:21 AM 10.4 °F -4.1 °F 3.2 °F 73% 30.44 in 10.0 mi ENE 11.5 mph - N/A   Mostly Cloudy
7:56 AM 12.0 °F -1.3 °F 3.0 °F 67% 30.50 in 10.0 mi ENE 10.4 mph - N/A   Overcast
8:56 AM 13.1 °F -0.7 °F 1.0 °F 59% 30.52 in 10.0 mi ENE 11.5 mph - N/A   Clear
9:56 AM 15.1 °F -0.1 °F 0.1 °F 52% 30.53 in 10.0 mi East 15.0 mph - N/A   Clear
10:56 AM 16.2 °F 1.9 °F -0.9 °F 47% 30.54 in 10.0 mi East 13.8 mph 19.6 mph N/A   Clear
11:56 AM 17.1 °F 5.0 °F -0.9 °F 45% 30.54 in 10.0 mi East 10.4 mph - N/A   Clear
12:56 PM 18.1 °F 6.3 °F 1.0 °F 47% 30.53 in 10.0 mi East 10.4 mph - N/A   Clear
1:56 PM 18.1 °F 6.3 °F 2.1 °F 50% 30.52 in 10.0 mi NE 10.4 mph - N/A   Clear
2:56 PM 17.1 °F 5.8 °F -0.9 °F 45% 30.52 in 10.0 mi East 9.2 mph - N/A   Clear
3:56 PM 16.2 °F 4.7 °F 0.1 °F 49% 30.53 in 10.0 mi East 9.2 mph - N/A   Clear
4:56 PM 14.0 °F 2.0 °F 0.1 °F 54% 30.53 in 10.0 mi East 9.2 mph - N/A   Clear
5:56 PM 12.0 °F 1.5 °F 0.1 °F 59% 30.54 in 10.0 mi East 6.9 mph - N/A   Clear
6:56 PM 9.1 °F -0.7 °F -0.9 °F 64% 30.54 in 10.0 mi ENE 5.8 mph - N/A   Clear
7:56 PM 6.1 °F -0.9 °F -2.9 °F 67% 30.53 in 10.0 mi East 3.5 mph - N/A   Clear
8:56 PM 1.0 °F -6.7 °F -4.9 °F 76% 30.53 in 10.0 mi North 3.5 mph - N/A   Clear
9:56 PM -4.9 °F - -8.9 °F 83% 30.54 in 10.0 mi Calm Calm - N/A   Clear
10:56 PM -6.9 °F - -11.9 °F 79% 30.53 in 10.0 mi Calm Calm - N/A   Clear
11:56 PM -6.9 °F - -11.9 °F 79% 30.52 in 10.0 mi Calm Calm - N/A   Clear